Weather History for VOTR - April, 2014

Change the Weather History Date:

Wednesday, April 9, 2014

  Actual Average Record
Temperature  
Mean Temperature 92 °F -  
Max Temperature 104 °F 94 °F - ()
Min Temperature 79 °F 80 °F - ()
Cooling Degree Days 26    
Growing Degree Days 42 (Base 50)    
Moisture  
Dew Point 74 °F    
Average Humidity 58    
Maximum Humidity 84    
Minimum Humidity 24    
Precipitation  
Precipitation 0.00 in - - ()
Sea Level Pressure  
Sea Level Pressure 29.83 in    
Wind  
Wind Speed 4 mph ()    
Max Wind Speed 16 mph    
Max Gust Speed -    
Visibility 3.7 miles    
Events      
T = Trace of Precipitation, MM = Missing Value Source: Averaged Metar Reports

Daily Weather History Graph

Daily Weather History Graph

Search for Another Location

Airport or City:

Trip Planner

Search our weather history database for the weather conditions in past years. The results will help you decide how hot, cold, wet, or windy it might be!

Date:

Astronomy

Apr. 09, 2014 Rise Set
Actual Time 6:07 AM IST 6:26 PM IST
Civil Twilight 5:46 AM IST 6:47 PM IST
Nautical Twilight 5:21 AM IST 7:12 PM IST
Astronomical Twilight 4:56 AM IST 7:36 PM IST
Moon 1:43 PM IST (4/9) 1:41 AM IST (4/9)
Length of Visible Light 13h 00m
Length of Day
12h 18m
Waxing Gibbous, 68% of the Moon is Illuminated
Apr 9
Waxing Gibbous
Apr 15
Full
Apr 22
Last Quarter
Apr 29
New
May 7
First Quarter

Hourly Weather History & Observations

Time (IST) Temp. Heat Index Dew Point Humidity Pressure Visibility Wind Dir Wind Speed Gust Speed Precip Events Conditions
12:10 AM 86.0 °F 93.4 °F 73.4 °F 66% 29.86 in 3.7 mi SSW 5.8 mph - N/A   Partly Cloudy
12:40 AM 84.2 °F 90.9 °F 73.4 °F 70% 29.86 in 3.7 mi South 4.6 mph - N/A   Partly Cloudy
1:10 AM 84.2 °F 92.3 °F 75.2 °F 74% 29.86 in 3.7 mi South 5.8 mph - N/A   Partly Cloudy
2:10 AM 84.2 °F 92.3 °F 75.2 °F 74% 29.83 in 3.1 mi SSW 5.8 mph - N/A   Haze
2:30 AM 84 °F - 75 °F 67% 29.81 in 2 mi South 6.9 mph - -   Haze
2:40 AM 84.2 °F 92.3 °F 75.2 °F 74% 29.80 in 3.1 mi SSW 5.8 mph - N/A   Haze
3:10 AM 84.2 °F 92.3 °F 75.2 °F 74% 29.80 in 2.5 mi South 5.8 mph - N/A   Haze
3:40 AM 84.2 °F 92.3 °F 75.2 °F 74% 29.80 in 2.5 mi SSW 3.5 mph - N/A   Haze
4:10 AM 84.2 °F 92.3 °F 75.2 °F 74% 29.83 in 2.5 mi SSW 3.5 mph - N/A   Haze
4:40 AM 82.4 °F 89.5 °F 75.2 °F 79% 29.83 in 2.5 mi Calm Calm - N/A   Haze
5:10 AM 82.4 °F 90.9 °F 77.0 °F 84% 29.83 in 2.5 mi Calm Calm - N/A   Haze
5:30 AM 82 °F - 76 °F 76% 29.83 in 2 mi Calm Calm - -   Haze
5:40 AM 82.4 °F 90.9 °F 77.0 °F 84% 29.83 in 2.5 mi Calm Calm - N/A   Haze
6:40 AM 82.4 °F 90.9 °F 77.0 °F 84% 29.86 in 1.9 mi Variable 2.3 mph - N/A   Haze
7:10 AM 82.4 °F 90.9 °F 77.0 °F 84% 29.86 in 1.9 mi Variable 2.3 mph - N/A   Haze
7:40 AM 84.2 °F 92.3 °F 75.2 °F 74% 29.89 in 1.9 mi South 4.6 mph - N/A   Haze
8:10 AM 86.0 °F 95.1 °F 75.2 °F 70% 29.89 in 1.9 mi South 4.6 mph - N/A   Haze
8:30 AM 88 °F - 76 °F 59% 29.90 in 2 mi South 3.5 mph - -   Haze
8:40 AM 87.8 °F 97.6 °F 75.2 °F 66% 29.92 in 2.5 mi Variable 2.3 mph - N/A   Haze
9:10 AM 89.6 °F 99.8 °F 75.2 °F 62% 29.92 in 2.5 mi Variable 2.3 mph - N/A   Haze
9:40 AM 91.4 °F 102.5 °F 75.2 °F 59% 29.92 in 2.5 mi Variable 2.3 mph - N/A   Haze
10:40 AM 95.0 °F 104.5 °F 73.4 °F 49% 29.89 in 3.1 mi Variable 2.3 mph - N/A   Haze
11:10 AM 96.8 °F 107.3 °F 73.4 °F 47% 29.89 in 3.7 mi Variable 2.3 mph - N/A   Haze
11:30 AM 97 °F - 72 °F 34% 29.88 in 2 mi 2.3 mph - -   Haze
11:40 AM 96.8 °F 107.3 °F 73.4 °F 47% 29.89 in 3.7 mi NNE 3.5 mph - N/A   Scattered Clouds
12:10 PM 96.8 °F 107.3 °F 73.4 °F 47% 29.86 in 3.7 mi Variable 3.5 mph - N/A   Scattered Clouds
12:40 PM 98.6 °F 109.2 °F 73.4 °F 44% 29.86 in 4.3 mi West 4.6 mph - N/A   Scattered Clouds
1:10 PM 100.4 °F 111.9 °F 73.4 °F 42% 29.83 in 4.3 mi Variable 2.3 mph - N/A   Scattered Clouds
1:40 PM 100.4 °F 111.9 °F 73.4 °F 42% 29.80 in 5.0 mi Variable 2.3 mph - N/A   Partly Cloudy
2:10 PM 100.4 °F 111.9 °F 73.4 °F 42% 29.77 in 5.0 mi SE 4.6 mph - N/A   Partly Cloudy
2:30 PM 102 °F - 67 °F 24% 29.76 in 6 mi ESE 3.5 mph - -   Scattered Clouds
2:40 PM 102.2 °F 108.4 °F 68.0 °F 33% 29.77 in 6.2 mi ESE 4.6 mph - N/A   Partly Cloudy
3:10 PM 102.2 °F 108.4 °F 68.0 °F 33% 29.77 in 6.2 mi SE 4.6 mph - N/A   Partly Cloudy
3:40 PM 102.2 °F 108.4 °F 68.0 °F 33% 29.74 in 6.2 mi East 9.2 mph - N/A   Partly Cloudy
4:10 PM 102.2 °F 108.4 °F 68.0 °F 33% 29.74 in 6.2 mi ESE 3.5 mph - N/A   Partly Cloudy
4:40 PM 100.4 °F 106.3 °F 68.0 °F 35% 29.74 in 6.2 mi East 4.6 mph - N/A   Partly Cloudy
5:10 PM 98.6 °F 105.5 °F 69.8 °F 39% 29.74 in 6.2 mi East 13.8 mph - N/A   Partly Cloudy
5:30 PM 99 °F - 72 °F 33% 29.73 in 6 mi ESE 13.8 mph - -   Scattered Clouds
5:40 PM 98.6 °F 104.1 °F 68.0 °F 37% 29.74 in 6.2 mi ESE 16.1 mph - N/A   Partly Cloudy
6:10 PM 96.8 °F 105.1 °F 71.6 °F 44% 29.74 in 6.2 mi SE 13.8 mph - N/A   Partly Cloudy
6:40 PM 95.0 °F 104.5 °F 73.4 °F 49% 29.77 in 5.0 mi SE 11.5 mph - N/A   Partly Cloudy
7:10 PM 93.2 °F 102.4 °F 73.4 °F 52% 29.77 in 3.7 mi SE 9.2 mph - N/A   Partly Cloudy
7:40 PM 91.4 °F 100.1 °F 73.4 °F 55% 29.80 in 3.7 mi SE 9.2 mph - N/A   Partly Cloudy
8:10 PM 91.4 °F 102.5 °F 75.2 °F 59% 29.80 in 3.7 mi SSE 6.9 mph - N/A   Partly Cloudy
8:30 PM 90 °F - 74 °F 51% 29.81 in 2 mi SE 9.2 mph - -   Haze
8:40 PM 89.6 °F 99.8 °F 75.2 °F 62% 29.80 in 3.7 mi SSE 8.1 mph - N/A   Partly Cloudy
9:10 PM 87.8 °F 97.6 °F 75.2 °F 66% 29.83 in 3.7 mi South 6.9 mph - N/A   Partly Cloudy
9:40 PM 87.8 °F 97.6 °F 75.2 °F 66% 29.86 in 3.7 mi South 6.9 mph - N/A   Partly Cloudy
10:10 PM 87.8 °F 97.6 °F 75.2 °F 66% 29.86 in 3.7 mi South 3.5 mph - N/A   Partly Cloudy
10:40 PM 86.0 °F 95.1 °F 75.2 °F 70% 29.86 in 3.7 mi Variable 2.3 mph - N/A   Partly Cloudy
11:10 PM 86.0 °F 95.1 °F 75.2 °F 70% 29.86 in 3.7 mi Calm Calm - N/A   Scattered Clouds
11:30 PM 86 °F - 76 °F 65% 29.86 in 2 mi Calm Calm - -   Haze
11:40 PM 86.0 °F 95.1 °F 75.2 °F 70% 29.86 in 3.7 mi Calm Calm - N/A   Scattered Clouds